Orbital Elements at Epoch 2459000.5 (2020-May-31.0) TDB
Reference: JPL 16 (heliocentric ecliptic J2000)
Element | Value | Uncertainty (1-sigma) | Units |
e | .03685207374464825 | 3.9939e-08 | |
a | 2.270574306254352 | 8.5535e-09 | au |
q | 2.186898934477564 | 8.9327e-08 | au |
i | 5.136012058278381 | 4.8426e-06 | deg |
node | 351.905496813974 | 3.967e-05 | deg |
peri | 228.2716501621697 | 6.8398e-05 | deg |
M | 121.7918447685524 | 5.6424e-05 | deg |
tp | 2458577.716807880272 (2019-Apr-04.21680788) | 0.00019545 | TDB |
period | 1249.689168041912 3.42 | 7.0616e-06 1.933e-08 | d yr |
n | .2880716334959273 | 1.6278e-09 | deg/d |
Q | 2.354249678031141 | 8.8687e-09 | au |
|
| | Orbit Determination Parameters
Additional Information
|